Saginaw, MI

7:45 AM EDT on August 26, 2016 (GMT -0400)
Saginaw County-Browne

Weather History for KHYX - November, 2013

Change the Weather History Date:

Monday, November 11, 2013

  Actual Average (KMBS) Record (KMBS)
Temperature  
Mean Temperature 34 °F 40 °F  
Max Temperature 41 °F 48 °F 70 °F (2012)
Min Temperature 26 °F 33 °F 23 °F (1997)
Degree Days  
Heating Degree Days 30    
Month to date heating degree days  
Since 1 July heating degree days  
Cooling Degree Days 0    
Month to date cooling degree days  
Year to date cooling degree days  
Moisture  
Dew Point 28 °F    
Average Humidity 76    
Maximum Humidity 100    
Minimum Humidity 60    
Precipitation  
Precipitation 0.00 in 0.09 in 0.17 in (2006)
Month to date precipitation 1.01  
Year to date precipitation 27.99  
Snow  
Snow 0.00 in - - ()
Month to date snowfall  
Since 1 July snowfall  
Since 1 September snowfall  
Snow Depth -    
Sea Level Pressure  
Sea Level Pressure 30.12 in    
Wind  
Wind Speed 10 mph (West)    
Max Wind Speed 18 mph    
Max Gust Speed 26 mph    
Visibility 8 miles    
Events Rain , Snow    
T = Trace of Precipitation, MM = Missing Value Source: NWS Daily Summary

Daily Weather History Graph

Daily Weather History Graph

Search for Another Location

Airport or City:

Trip Planner

Search our weather history database for the weather conditions in past years. The results will help you decide how hot, cold, wet, or windy it might be!

Date:

Astronomy

Nov. 11, 2013 Rise Set
Actual Time 7:24 AM EST 5:14 PM EST
Civil Twilight 6:53 AM EST 5:44 PM EST
Nautical Twilight 6:19 AM EST 6:19 PM EST
Astronomical Twilight 5:45 AM EST 6:52 PM EST
Moon 2:04 PM EST (11/11) 12:57 AM EST (11/11)
Length of Visible Light 10h 51m
Length of Day
9h 50m
Waxing Gibbous, 66% of the Moon is Illuminated
Nov 11
Waxing Gibbous
Nov 17
Full
Nov 25
Last Quarter
Dec 2
New
Dec 9
First Quarter

Hourly Weather History & Observations

Time (EST) Temp. Windchill Dew Point Humidity Pressure Visibility Wind Dir Wind Speed Gust Speed Precip Events Conditions
12:14 AM 35.6 °F 28.6 °F 28.4 °F 75% 30.18 in 10.0 mi SSW 9.2 mph - N/A   Scattered Clouds
12:34 AM 35.6 °F 29.9 °F 30.2 °F 81% 30.17 in 10.0 mi SSW 6.9 mph - N/A   Mostly Cloudy
12:54 AM 35.6 °F 29.9 °F 30.2 °F 81% 30.17 in 10.0 mi SSW 6.9 mph - N/A   Overcast
1:14 AM 35.6 °F 29.9 °F 30.2 °F 81% 30.15 in 10.0 mi South 6.9 mph - N/A   Overcast
1:34 AM 35.6 °F 29.9 °F 30.2 °F 81% 30.14 in 10.0 mi South 6.9 mph - N/A   Overcast
1:54 AM 35.6 °F 29.9 °F 30.2 °F 81% 30.13 in 10.0 mi South 6.9 mph - N/A   Overcast
2:14 AM 37.4 °F 30.8 °F 30.2 °F 75% 30.13 in 10.0 mi SSW 9.2 mph - N/A   Overcast
2:34 AM 37.4 °F 30.8 °F 30.2 °F 75% 30.11 in 10.0 mi SSW 9.2 mph - N/A   Overcast
2:54 AM 37.4 °F 30.3 °F 30.2 °F 75% 30.11 in 10.0 mi SSW 10.4 mph - N/A   Overcast
3:14 AM 37.4 °F 30.8 °F 32.0 °F 81% 30.10 in 10.0 mi SSW 9.2 mph - N/A   Overcast
3:34 AM 37.4 °F 31.4 °F 32.0 °F 81% 30.08 in 10.0 mi SW 8.1 mph - N/A   Overcast
3:54 AM 37.4 °F 30.3 °F 32.0 °F 81% 30.07 in 10.0 mi SSW 10.4 mph - N/A   Overcast
4:14 AM 39.2 °F 32.0 °F 32.0 °F 75% 30.06 in 10.0 mi SSW 11.5 mph - N/A   Overcast
4:34 AM 39.2 °F 33.0 °F 32.0 °F 75% 30.06 in 10.0 mi SSW 9.2 mph - N/A   Overcast
4:54 AM 39.2 °F 32.5 °F 32.0 °F 75% 30.06 in 10.0 mi SSW 10.4 mph - N/A   Overcast
5:14 AM 39.2 °F 32.5 °F 32.0 °F 75% 30.04 in 10.0 mi SSW 10.4 mph - N/A   Overcast
5:34 AM 39.2 °F 32.0 °F 32.0 °F 75% 30.03 in 10.0 mi SSW 11.5 mph - N/A   Overcast
5:54 AM 39.2 °F 32.0 °F 32.0 °F 75% 30.03 in 10.0 mi SW 11.5 mph - N/A   Overcast
6:14 AM 41.0 °F 33.9 °F 32.0 °F 70% 30.03 in 10.0 mi SW 12.7 mph - N/A   Overcast
6:34 AM 41.0 °F 33.9 °F 32.0 °F 70% 30.01 in 10.0 mi SW 12.7 mph 18.4 mph N/A   Overcast
6:54 AM 41.0 °F 33.9 °F 32.0 °F 70% 30.02 in 10.0 mi SW 12.7 mph - N/A   Overcast
7:14 AM 41.0 °F 34.7 °F 32.0 °F 70% 30.01 in 10.0 mi SW 10.4 mph - N/A   Overcast
7:34 AM 41.0 °F 35.2 °F 32.0 °F 70% 30.01 in 10.0 mi SW 9.2 mph - N/A   Overcast
7:54 AM 41.0 °F 35.2 °F 33.8 °F 76% 30.02 in 7.0 mi WSW 9.2 mph - N/A Rain Light Rain
8:14 AM 41.0 °F 34.7 °F 33.8 °F 76% 30.02 in 10.0 mi WSW 10.4 mph - N/A Rain Light Rain
8:34 AM 41.0 °F 35.8 °F 33.8 °F 76% 30.02 in 7.0 mi WSW 8.1 mph - N/A Rain Light Rain
8:54 AM 39.2 °F 34.2 °F 35.6 °F 87% 30.02 in 7.0 mi WSW 6.9 mph - N/A Rain Light Rain
9:14 AM 39.2 °F 33.0 °F 35.6 °F 87% 30.02 in 10.0 mi WSW 9.2 mph - N/A Rain Light Rain
9:34 AM 39.2 °F 34.2 °F 35.6 °F 87% 30.02 in 7.0 mi WSW 6.9 mph - N/A Rain Rain
9:54 AM 39.2 °F 34.2 °F 35.6 °F 87% 30.02 in 4.0 mi WSW 6.9 mph - N/A Rain Light Rain
10:14 AM 39.2 °F 33.0 °F 37.4 °F 93% 30.02 in 4.0 mi West 9.2 mph - N/A   Overcast
10:34 AM 39.2 °F 33.6 °F 37.4 °F 93% 30.02 in 5.0 mi West 8.1 mph - N/A   Overcast
10:54 AM 39.2 °F 33.0 °F 37.4 °F 93% 30.02 in 5.0 mi West 9.2 mph - N/A Rain Light Rain
11:14 AM 39.2 °F 31.2 °F 35.6 °F 87% 30.02 in 4.0 mi WNW 13.8 mph 18.4 mph N/A Rain Light Rain
11:34 AM 39.2 °F 31.2 °F 35.6 °F 87% 30.02 in 4.0 mi WNW 13.8 mph 18.4 mph N/A Rain Light Rain
11:54 AM 37.4 °F 28.5 °F 35.6 °F 93% 30.02 in 4.0 mi West 15.0 mph 19.6 mph N/A Rain Light Rain
12:14 PM 37.4 °F 28.5 °F 35.6 °F 93% 30.02 in 4.0 mi West 15.0 mph - N/A Rain Light Rain
12:34 PM 37.4 °F 29.8 °F 35.6 °F 93% 30.02 in 7.0 mi WNW 11.5 mph - N/A Rain Light Rain
12:54 PM 37.4 °F 30.3 °F 35.6 °F 93% 30.03 in 7.0 mi WNW 10.4 mph - N/A Rain Light Rain
1:14 PM 33.8 °F 23.2 °F 33.8 °F 100% 30.04 in 3.0 mi North 17.3 mph 21.9 mph N/A Snow Light Snow
1:34 PM 32.0 °F 20.8 °F 32.0 °F 100% 30.05 in 1.2 mi NNW 17.3 mph 24.2 mph N/A Snow Light Snow
1:54 PM 33.8 °F 25.3 °F 32.0 °F 93% 30.07 in 1.5 mi NNW 11.5 mph 17.3 mph N/A Snow Light Snow
2:14 PM 33.8 °F 23.9 °F 32.0 °F 93% 30.07 in 3.0 mi NNW 15.0 mph - N/A Snow Light Snow
2:34 PM 32.0 °F 20.8 °F 30.2 °F 93% 30.08 in 4.0 mi NW 17.3 mph 23.0 mph N/A Snow Light Snow
2:55 PM 32.0 °F 20.5 °F 28.4 °F 87% 30.09 in 10.0 mi NNW 18.4 mph 24.2 mph N/A   Overcast
3:14 PM 32.0 °F 21.6 °F 28.4 °F 87% 30.10 in 5.0 mi NNW 15.0 mph 23.0 mph N/A Snow Light Snow
3:34 PM 32.0 °F 21.6 °F 26.6 °F 80% 30.11 in 10.0 mi NNW 15.0 mph 19.6 mph N/A   Overcast
3:55 PM 32.0 °F 23.6 °F 23.0 °F 69% 30.13 in 10.0 mi NNW 10.4 mph 20.7 mph N/A   Overcast
4:14 PM 32.0 °F 22.1 °F 21.2 °F 64% 30.14 in 10.0 mi North 13.8 mph 20.7 mph N/A   Mostly Cloudy
4:34 PM 32.0 °F 20.8 °F 21.2 °F 64% 30.14 in 10.0 mi NNW 17.3 mph 26.5 mph N/A   Overcast
4:55 PM 32.0 °F 21.2 °F 19.4 °F 60% 30.16 in 10.0 mi NNW 16.1 mph 25.3 mph N/A   Overcast
5:14 PM 32.0 °F 22.5 °F 21.2 °F 64% 30.16 in 10.0 mi NNW 12.7 mph - N/A   Overcast
5:34 PM 32.0 °F 22.1 °F 21.2 °F 64% 30.17 in 10.0 mi NNW 13.8 mph 20.7 mph N/A   Overcast
5:54 PM 30.2 °F 19.8 °F 19.4 °F 64% 30.18 in 10.0 mi NNW 13.8 mph - N/A   Scattered Clouds
6:14 PM 30.2 °F 21.3 °F 19.4 °F 64% 30.19 in 10.0 mi NNW 10.4 mph - N/A   Scattered Clouds
6:34 PM 30.2 °F 20.2 °F 19.4 °F 64% 30.21 in 10.0 mi NNW 12.7 mph 18.4 mph N/A   Scattered Clouds
6:54 PM 30.2 °F 20.2 °F 19.4 °F 64% 30.21 in 10.0 mi NNW 12.7 mph 18.4 mph N/A   Clear
7:14 PM 30.2 °F 20.8 °F 17.6 °F 60% 30.22 in 10.0 mi NNW 11.5 mph - N/A   Clear
7:34 PM 30.2 °F 18.9 °F 17.6 °F 60% 30.23 in 10.0 mi NNW 16.1 mph - N/A   Clear
7:54 PM 30.2 °F 21.9 °F 19.4 °F 64% 30.24 in 10.0 mi NNW 9.2 mph 19.6 mph N/A   Clear
8:14 PM 30.2 °F 21.3 °F 19.4 °F 64% 30.24 in 10.0 mi NNW 10.4 mph - N/A   Clear
8:34 PM 30.2 °F 19.8 °F 19.4 °F 64% 30.25 in 10.0 mi NNW 13.8 mph 18.4 mph N/A   Clear
8:54 PM 30.2 °F 21.3 °F 19.4 °F 64% 30.26 in 10.0 mi NNW 10.4 mph 21.9 mph N/A   Scattered Clouds
9:14 PM 28.4 °F 19.1 °F 19.4 °F 69% 30.27 in 10.0 mi NNW 10.4 mph - N/A   Scattered Clouds
9:34 PM 28.4 °F 21.2 °F 19.4 °F 69% 30.27 in 10.0 mi NW 6.9 mph - N/A   Clear
9:54 PM 28.4 °F 19.7 °F 19.4 °F 69% 30.29 in 10.0 mi NW 9.2 mph - N/A   Clear
10:14 PM 28.4 °F 20.4 °F 19.4 °F 69% 30.29 in 10.0 mi NW 8.1 mph - N/A   Scattered Clouds
10:34 PM 28.4 °F 18.5 °F 19.4 °F 69% 30.30 in 10.0 mi NW 11.5 mph - N/A   Mostly Cloudy
10:54 PM 28.4 °F 19.1 °F 17.6 °F 64% 30.31 in 10.0 mi NNW 10.4 mph - N/A   Scattered Clouds
11:14 PM 28.4 °F 16.6 °F 17.6 °F 64% 30.31 in 10.0 mi NNW 16.1 mph 20.7 mph N/A   Scattered Clouds
11:34 PM 28.4 °F 16.2 °F 17.6 °F 64% 30.31 in 10.0 mi NNW 17.3 mph 21.9 mph N/A   Scattered Clouds
11:54 PM 26.6 °F 15.2 °F 15.8 °F 64% 30.32 in 10.0 mi NNW 13.8 mph 20.7 mph N/A   Clear